Theta_e
300 300 300 299 296 299 308 308 306 307 307 308 305 299 305 310 310 310 309 308 309 309 312 312 309 311 312 312 310 311 309 309 314 316 313 311 311 311 309 308 308 304 304 308
300 300 300 300 299 296 306 307 307 307 307 308 303 304 310 310 309 309 308 309 308 308 308 310 309 309 309 312 310 310 309 310 313 312 313 312 315 313 310 307 304 305 308 311
300 300 300 300 301 297 305 306 301 306 307 307 307 309 309 311 310 309 308 308 307 308 308 306 309 309 310 311 311 311 309 307 307 310 308 310 312 314 312 310 314 315 312 311
300 300 300 300 301 298 303 304 302 302 301 306 305 307 309 311 311 309 309 309 308 309 309 309 309 308 308 309 311 310 309 306 305 307 308 309 310 311 313 314 313 314 315 313
300 299 300 300 300 301 299 301 301 303 301 302 305 304 308 310 310 310 310 311 308 308 309 308 309 308 307 308 307 307 305 306 303 303 307 309 309 308 310 312 313 313 313 313
300 299 299 300 299 300 299 300 302 301 298 300 308 301 305 303 305 309 310 311 309 308 308 309 308 307 306 306 306 306 305 301 299 302 304 306 306 307 307 309 311 312 313 313
300 299 299 299 299 299 299 298 296 299 297 296 298 299 301 302 302 308 309 310 309 310 310 309 307 306 305 306 304 305 303 302 298 299 302 303 305 304 305 306 307 309 310 311
300 299 299 299 299 299 298 298 298 296 295 294 295 298 299 302 303 305 309 306 307 310 309 306 307 306 308 308 306 306 303 302 301 302 302 303 306 307 306 306 307 304 307 308
299 299 299 299 298 298 296 296 298 298 295 295 296 295 297 296 297 304 304 305 308 308 306 307 308 307 307 309 309 306 306 305 304 305 306 308 304 308 306 305 307 306 306 304
299 299 299 299 298 298 297 296 296 297 296 295 296 294 295 295 295 297 299 298 304 307 304 309 308 306 306 309 308 309 309 309 307 307 308 307 304 305 307 310 307 309 310 309
298 298 299 299 298 297 297 296 295 296 296 295 295 295 296 295 295 295 296 301 302 302 305 307 305 306 304 305 305 306 307 306 307 308 309 305 305 309 310 307 310 310 311 311
299 298 298 298 297 297 297 296 295 296 296 295 295 295 295 296 295 295 295 297 300 300 305 304 304 305 305 302 306 302 306 304 306 305 305 304 306 308 309 308 308 310 311 311
298 298 298 298 297 297 297 296 296 296 296 295 296 295 295 296 296 296 296 296 298 298 298 299 303 305 303 304 302 303 303 303 305 305 305 303 306 306 306 306 305 307 310 311
298 297 298 298 297 297 297 297 296 296 296 296 296 295 295 296 296 296 296 296 296 297 297 295 297 301 300 301 301 302 304 303 302 302 302 303 306 304 302 304 304 308 308 311
297 297 297 297 297 297 298 298 297 297 297 297 297 297 297 296 295 295 296 296 295 296 296 294 296 296 297 297 297 298 299 298 300 300 299 297 297 297 299 299 302 306 307 309
297 297 298 298 296 296 297 298 298 298 298 298 293 297 297 297 297 297 295 295 295 295 295 295 295 295 297 297 297 298 298 297 296 296 296 297 299 299 299 301 301 303 307 309
297 297 298 297 297 297 297 298 298 298 298 298 295 295 297 298 298 297 296 295 295 295 295 295 295 295 297 298 298 297 297 298 299 299 298 300 300 300 300 300 301 302 307 308
297 297 297 297 298 298 298 298 298 298 298 297 284 288 297 296 298 298 297 296 296 295 295 295 295 295 294 296 297 299 298 298 298 297 298 299 300 301 301 301 302 303 306 306
296 296 296 297 298 299 299 299 298 298 298 297 293 291 288 295 296 297 297 296 295 295 295 295 295 295 297 300 299 298 297 297 297 296 298 298 299 299 300 299 301 302 305 303
296 296 296 297 297 298 298 298 299 299 298 298 294 293 290 295 295 296 298 297 297 293 296 294 296 297 298 299 300 299 297 297 296 296 295 297 298 298 299 298 300 302 303 302
297 296 296 296 297 297 297 297 294 295 293 296 296 295 289 294 291 293 298 298 298 295 298 298 298 298 299 299 299 298 297 296 295 295 296 295 296 296 297 298 299 300 300 300
296 297 297 297 297 297 289 283 291 291 291 296 296 295 294 295 295 298 298 298 299 298 296 299 299 296 297 299 298 298 297 296 293 293 295 296 296 296 296 297 298 298 300 300
297 297 297 296 292 289 285 288 285 287 294 295 294 291 294 295 295 297 298 301 302 298 300 298 295 298 296 297 295 295 296 296 296 293 292 295 295 296 296 296 297 297 296 297
297 296 290 288 287 286 285 287 287 294 296 294 292 292 292 294 293 296 299 299 301 300 296 295 289 297 297 296 295 294 294 295 296 295 293 291 293 295 294 294 294 292 293 293
297 296 291 287 292 293 292 294 295 295 294 294 293 292 293 294 295 296 297 298 301 292 291 288 297 296 294 294 293 293 293 293 294 295 295 294 291 293 294 294 293 288 289 290
296 295 289 291 292 290 292 293 294 294 294 293 293 289 290 294 295 295 294 298 298 291 286 296 294 293 293 292 292 291 291 291 292 293 295 296 295 293 293 293 291 290 290 289
296 294 294 295 296 294 295 295 295 294 294 287 289 286 288 291 293 293 295 297 291 296 294 293 292 292 292 291 291 292 292 292 292 291 292 294 295 293 293 293 293 294 291 287
Wind_Speed
16 16 18 19 17 10 6 3 1 3 7 2 1 2 3 2 3 1 1 1 3 4 6 4 5 7 1 10 10 5 2 4 3 1 2 3 2 3 4 4 3 1 2 7
13 13 16 18 15 10 3 1 2 4 5 1 2 4 1 1 4 4 4 4 4 3 3 4 1 2 3 14 4 6 6 3 4 2 2 2 3 4 3 3 3 7 4 6
11 11 14 16 14 10 3 0 1 2 4 3 2 1 2 2 3 2 3 2 3 3 5 6 3 2 2 3 5 8 4 3 5 6 4 3 5 8 10 4 5 6 15 10
9 10 12 13 13 9 2 0 1 2 1 2 3 1 1 1 2 3 10 4 4 1 3 3 3 3 4 6 4 4 2 3 3 4 4 5 3 5 12 14 16 12 13 18
8 9 10 11 12 6 4 1 2 2 0 3 1 4 5 4 4 5 4 4 5 3 4 2 4 4 2 4 2 3 2 1 2 4 3 2 4 7 9 19 21 15 23 24
7 8 10 11 10 8 6 3 3 0 4 3 1 2 3 4 4 5 7 3 3 6 3 4 3 4 2 3 7 3 3 4 3 3 3 3 7 13 12 5 7 15 14 26
5 7 10 10 11 11 10 6 2 1 2 3 3 3 3 5 6 2 5 10 3 2 7 2 4 9 8 6 5 5 5 4 2 2 2 0 6 2 6 12 14 14 13 17
3 6 8 10 10 11 11 10 4 2 3 2 4 8 4 4 4 4 3 7 7 5 2 3 3 4 2 1 2 2 3 4 2 3 2 7 3 1 4 5 5 5 15 16
3 6 7 8 10 10 9 11 7 4 7 3 2 2 5 2 3 2 3 3 8 3 2 3 2 2 3 1 1 3 3 4 3 2 1 4 4 2 3 4 4 3 5 9
5 6 6 7 7 9 9 13 8 5 7 6 4 3 2 3 3 1 3 8 8 10 2 2 1 1 2 2 4 3 3 2 4 4 3 6 6 4 4 2 4 11 9 16
8 7 7 7 9 9 8 13 8 6 7 8 8 6 4 4 4 2 8 2 6 5 3 2 1 1 1 2 2 4 6 4 4 1 2 6 3 0 2 4 10 14 17 19
6 5 6 9 9 9 10 14 12 13 9 9 10 13 12 3 2 2 3 3 2 1 1 2 1 2 2 1 2 1 2 4 1 6 5 4 4 9 13 18 23 21 18 19
8 6 8 10 9 10 10 14 18 21 15 10 5 8 8 6 3 5 4 2 2 2 4 3 0 1 1 1 3 3 2 3 2 3 3 7 24 17 13 22 31 26 20 15
9 9 9 8 9 11 10 13 10 9 8 5 5 8 9 9 7 4 2 0 2 3 2 1 1 1 3 1 2 2 3 7 4 5 6 22 4 23 29 34 34 28 19 16
11 10 10 9 10 10 9 14 15 8 5 5 5 8 9 9 8 7 2 2 5 2 1 1 0 0 2 2 1 2 3 2 3 4 12 9 19 32 37 37 36 31 21 18
12 9 12 13 11 9 5 4 13 6 7 5 2 3 6 9 8 7 5 5 3 3 3 2 1 1 1 2 1 4 5 18 19 11 22 30 31 27 26 26 32 32 26 17
12 12 18 15 12 9 5 7 7 8 5 4 3 3 5 11 6 5 4 3 2 3 3 3 2 1 1 1 2 6 26 23 26 25 18 13 12 22 31 31 34 30 23 17
16 18 19 18 18 16 19 19 11 8 6 6 3 3 2 11 4 4 3 2 2 2 1 1 1 2 2 2 10 20 24 26 20 20 22 26 30 32 30 31 30 21 15 18
20 21 18 13 7 3 8 12 13 15 6 5 5 1 3 8 5 2 0 1 1 1 1 0 1 2 2 7 19 21 23 17 24 28 25 24 22 25 31 30 20 17 13 15
23 18 3 5 6 11 7 4 3 4 5 4 4 2 2 3 4 3 2 2 1 1 1 5 1 3 12 12 15 20 21 19 22 23 23 26 28 27 27 23 15 12 9 14
18 6 3 15 12 5 3 3 5 4 3 2 2 4 1 1 1 2 1 1 1 2 2 1 2 2 2 17 21 20 19 18 19 18 18 18 20 22 23 17 11 11 7 11
10 8 16 8 4 3 5 1 3 2 3 2 2 1 1 1 2 3 1 1 0 2 8 1 2 3 14 19 22 24 22 20 21 20 19 18 17 16 16 11 7 6 5 6
19 4 4 1 3 6 4 2 3 1 4 4 1 2 3 3 1 4 1 3 2 8 2 3 3 3 16 18 23 26 25 24 22 22 21 18 17 14 14 13 9 7 6 8
4 5 4 3 3 2 4 4 4 4 5 3 1 1 2 1 2 2 2 3 1 2 1 4 3 11 17 21 24 27 28 26 25 23 22 21 20 17 13 12 10 8 8 8
3 4 3 2 4 3 6 6 5 6 5 1 2 2 1 2 1 3 2 2 3 5 4 3 7 16 23 25 29 29 28 27 27 25 23 23 21 20 18 13 6 10 9 9
3 4 6 6 3 2 5 6 5 7 5 2 2 2 1 2 2 3 5 3 6 4 3 6 14 19 22 26 28 29 27 25 25 25 24 24 22 20 19 15 7 8 10 9
4 4 9 8 7 5 6 8 6 9 5 2 3 2 7 1 2 4 4 5 3 5 7 13 16 21 25 26 22 20 23 26 27 26 24 23 22 21 20 16 12 13 10 11
Wind_Direction
343 351 358 357 354 3 152 178 110 144 148 223 40 225 209 357 346 35 305 27 76 144 171 144 184 188 180 180 157 128 151 110 122 44 12 46 79 172 160 137 228 204 150 265
346 358 1 1 355 352 170 134 125 157 179 293 283 288 259 7 32 5 25 30 26 52 100 102 80 107 326 158 141 151 175 130 116 27 324 6 222 181 205 109 86 198 173 260
352 2 1 356 357 353 155 145 95 163 211 258 244 344 359 101 50 58 12 29 47 60 47 26 121 95 75 135 81 90 96 129 160 182 193 134 190 204 201 168 223 239 236 278
2 8 7 357 2 360 143 182 206 163 206 279 331 282 331 348 89 28 21 33 42 25 99 57 89 65 57 37 80 64 118 156 151 235 200 159 220 227 205 211 230 227 257 242
5 9 6 360 6 15 60 149 125 152 7 269 231 357 8 47 351 28 8 54 11 44 84 52 186 127 149 178 137 144 1 229 72 335 343 233 269 246 226 227 237 251 254 270
9 10 11 16 23 36 69 69 98 274 347 334 87 44 37 12 322 55 53 307 93 50 23 327 329 267 237 179 145 137 129 130 83 270 355 352 293 238 217 212 230 229 245 250
20 14 17 27 29 40 60 65 105 80 357 51 37 10 16 10 347 36 21 23 73 348 327 73 87 63 106 100 65 130 129 104 87 215 26 311 242 188 193 213 241 231 247 260
34 33 35 34 34 42 51 53 79 77 88 4 31 25 352 24 9 35 74 32 349 330 82 63 44 354 45 71 141 127 127 122 101 136 204 290 331 114 143 174 280 226 237 263
79 63 61 49 55 48 49 52 64 91 123 26 341 13 21 47 348 35 29 355 21 18 82 87 124 197 215 217 105 86 126 103 116 153 174 252 248 311 206 149 297 234 224 262
97 81 84 70 61 52 58 52 47 106 100 43 51 71 19 24 26 344 344 339 7 11 50 87 123 275 218 153 182 172 157 184 182 216 246 287 252 285 157 77 254 311 313 308
104 97 92 84 60 62 60 42 56 119 96 70 59 57 45 42 47 44 339 340 9 14 62 78 127 107 316 346 217 187 180 162 215 169 206 286 213 80 165 237 312 322 325 327
119 98 86 93 71 75 64 63 86 101 91 111 87 58 47 107 50 26 38 128 57 27 348 64 31 31 33 316 283 14 270 191 209 187 219 260 318 287 287 316 309 307 315 326
138 125 104 89 79 87 64 89 111 106 100 90 60 34 59 48 8 349 354 17 56 90 92 143 73 117 48 290 272 309 313 11 247 357 346 330 319 318 353 344 341 322 302 310
149 143 120 97 100 99 75 85 116 114 110 99 69 60 52 33 16 344 327 43 39 76 25 90 118 154 40 257 298 299 268 340 317 267 326 333 318 325 328 325 330 337 303 293
155 144 122 112 122 118 93 75 71 76 106 121 111 77 43 23 23 18 6 268 262 302 344 48 51 26 33 341 331 269 348 27 11 286 311 294 296 306 310 314 315 323 318 283
152 143 119 121 119 131 123 86 57 77 82 108 75 81 35 14 17 23 41 52 26 355 348 12 36 20 83 71 272 284 17 335 327 294 295 301 298 304 309 298 304 306 310 271
151 139 125 118 103 105 113 95 86 86 86 88 80 26 23 8 15 31 45 58 32 353 11 3 344 356 49 90 266 302 322 321 315 321 316 311 310 307 313 312 309 304 294 258
148 135 128 119 109 90 86 86 89 100 80 77 86 298 71 14 12 18 11 63 64 56 38 332 0 16 14 262 275 316 318 319 319 320 318 307 307 314 316 311 310 294 278 252
147 134 130 117 113 91 98 86 74 68 77 95 76 83 262 1 17 316 340 125 59 69 46 25 55 32 263 262 297 304 326 318 314 324 323 318 311 306 312 315 297 279 258 262
147 136 144 114 119 118 104 71 63 55 47 65 100 195 277 16 317 313 352 171 104 145 103 118 210 242 258 303 320 317 327 325 331 333 326 321 318 319 320 314 296 270 255 264
154 160 107 129 125 101 71 72 54 19 39 80 122 201 254 78 59 274 314 339 122 23 117 204 219 265 299 341 335 337 340 333 332 330 323 315 310 314 317 315 296 281 268 279
154 142 118 121 100 83 81 350 345 69 206 156 193 201 285 173 272 266 265 222 92 272 149 228 251 259 351 344 339 346 345 337 333 337 337 335 329 327 323 316 302 294 294 299
132 117 99 102 49 46 103 147 313 347 193 179 226 232 164 167 233 265 246 212 207 130 184 225 214 328 340 341 341 340 340 338 332 333 335 342 341 334 321 322 318 332 317 306
154 143 67 98 320 225 180 174 174 154 166 176 172 100 116 108 70 308 250 270 117 171 199 230 238 341 331 331 335 336 335 333 330 327 329 326 333 332 321 307 308 322 314 321
122 113 118 172 138 119 143 143 144 157 159 123 125 108 139 155 201 218 255 226 242 201 226 229 327 327 331 329 329 329 329 327 323 322 320 322 318 324 322 294 290 324 328 324
103 98 99 126 117 140 175 180 167 173 163 143 156 80 79 217 227 211 222 218 220 241 212 321 316 314 319 328 327 323 325 323 318 315 312 312 315 308 311 307 274 301 304 316
113 114 124 135 105 141 171 178 172 175 171 189 133 96 217 141 218 232 210 220 222 175 306 318 325 325 326 325 321 327 330 326 320 311 306 303 310 298 299 288 270 270 285 308